Location: The Saddle
(36.8333°N, 80.3417°W)
Time: 16:56:09
(UTC-05:00)

A-11 Canister half - Pass Details

Date: 15 December 2023
Orbit: 1512 x 1687 km, 47.2° (Epoch: 29 February)

Event Time Altitude Azimuth Distance (km) Brightness Sun altitude
Rises 05:16:51 0° 300° (WNW) 4,842 - -25.2°
Reaches altitude 10° 05:20:10 10° 293° (WNW) 3,876 - -24.5°
Exits shadow 05:26:08 34° 263° (W) 2,508 9.6 -23.4°
Maximum altitude 05:29:11 41° 228° (SW) 2,274 9.6 -22.8°
Drops below altitude 10° 05:38:23 10° 163° (SSE) 3,940 11.5 -21.0°
Sets 05:41:48 0° 156° (SSE) 4,928 12.2 -20.3°
